Location: Taukkyan
(23.1052°N, 94.0030°E)
Time: 22:29:10
(UTC+00:00)

Cosmos 1953 - Pass Details

Date: 06 July 2020
Orbit: 540 x 557 km, 82.5° (Epoch: 05 August)

Event Time Altitude Azimuth Distance (km) Brightness Sun altitude
Rises 12:58:44 0° 342° (NNW) 2,709 6.6 -6.0°
Reaches altitude 10° 13:01:01 10° 333° (NNW) 1,817 5.9 -6.4°
Maximum altitude 13:04:38 33° 268° (W) 930 4.2 -7.2°
Drops below altitude 10° 13:08:15 10° 203° (SSW) 1,820 4.9 -7.9°
Sets 13:10:33 0° 194° (SSW) 2,714 5.7 -8.4°
